Wind_Speed
34 34 33 34 34 35 35 37 38 37 38 37 38 39 39 38 38 38 38 38 38 39 40 40 41 41 42 42 43 43 43 43 44 44 44 45 45 45 46 46 46 47 48 48
34 34 33 34 34 34 35 35 36 36 36 36 37 38 38 37 37 37 37 37 38 38 38 39 40 40 41 41 41 42 43 43 44 44 44 44 45 45 45 46 45 46 46 47
34 34 35 35 33 33 34 34 35 35 35 35 37 37 37 37 37 37 37 37 37 38 38 38 39 39 39 40 40 41 41 42 42 43 43 43 44 44 44 44 45 45 45 46
33 33 35 35 34 33 33 32 33 34 34 34 34 35 36 36 35 35 35 36 36 37 36 37 37 38 38 39 39 40 40 41 41 41 41 41 42 42 43 43 43 43 44 44
32 34 35 34 33 32 32 32 32 34 34 35 34 34 34 35 35 35 35 35 36 36 36 36 36 37 37 38 38 39 39 40 40 40 41 41 41 42 41 42 42 42 42 42
32 33 33 32 31 31 32 32 32 33 33 33 33 34 34 34 34 34 35 35 35 36 36 36 36 36 36 37 37 38 38 38 39 40 40 40 40 40 40 41 41 41 41 42
32 33 32 30 31 31 32 33 32 33 33 32 33 34 34 34 34 34 35 35 35 35 35 35 36 36 36 36 37 37 37 37 38 38 38 38 39 39 39 40 41 41 40 40
31 31 31 30 31 31 32 32 32 32 33 33 33 33 34 34 34 35 34 35 35 35 35 35 35 35 35 35 36 36 36 36 36 37 37 37 37 38 38 38 39 39 39 39
31 31 31 30 31 30 30 30 30 31 32 33 33 33 33 34 34 35 35 35 35 35 35 35 35 35 35 35 35 35 35 35 36 36 36 36 36 36 36 36 36 36 37 37
31 30 30 30 31 31 31 31 30 31 32 33 33 34 34 34 34 35 36 36 35 35 35 35 35 35 34 34 33 34 34 34 35 35 35 34 34 35 35 34 34 34 34 34
30 29 30 30 31 32 32 32 31 30 31 32 33 33 34 34 35 35 35 36 36 35 35 34 34 34 34 33 33 33 33 33 33 33 33 32 32 32 32 32 32 32 32 32
28 28 29 29 30 31 31 32 31 31 31 31 32 32 33 34 35 35 35 36 36 35 35 34 33 33 33 33 33 32 32 32 32 32 32 31 31 30 30 30 30 30 30 30
28 28 28 28 28 28 29 30 30 30 30 31 32 32 33 34 34 35 35 35 35 35 34 33 33 32 32 32 31 31 31 31 31 30 30 30 30 29 29 29 29 28 28 28
28 28 28 28 28 28 28 28 28 29 30 31 31 32 32 33 32 32 32 32 32 32 32 32 32 31 31 31 30 30 30 30 30 30 30 30 29 29 29 28 28 28 28 28
27 27 28 28 28 28 28 29 29 29 29 29 29 30 30 30 30 30 30 30 30 30 30 30 30 29 29 29 29 29 29 29 29 29 29 29 29 29 29 28 28 28 28 28
26 27 27 28 28 28 28 29 29 29 29 29 28 28 28 28 28 28 29 29 28 28 28 28 28 28 27 27 28 28 28 28 28 28 28 28 28 28 28 28 28 28 28 28
26 27 27 28 28 28 28 28 28 28 27 27 28 28 28 28 28 28 28 28 27 27 27 27 27 26 26 27 27 27 26 27 27 26 27 27 28 28 28 28 28 28 28 28
26 27 27 27 27 27 27 27 27 27 26 27 27 27 27 28 28 27 26 26 26 26 26 26 26 26 26 26 26 26 26 25 25 25 26 26 27 27 27 27 27 27 27 28
25 25 25 26 26 26 26 26 27 27 26 26 26 27 27 27 27 26 25 25 25 24 25 25 25 26 26 25 25 25 25 25 25 26 26 26 27 27 27 27 27 27 27 28
24 24 24 25 26 26 26 25 26 26 26 26 26 26 26 25 25 25 24 24 24 24 24 24 24 25 25 25 25 25 26 26 26 26 27 27 27 27 28 27 27 27 27 27
24 24 24 25 25 26 26 26 25 25 24 24 24 24 24 24 24 24 24 23 23 23 23 23 23 24 24 25 25 25 26 26 26 27 27 27 27 27 27 27 27 27 26 26
25 25 25 26 26 26 26 26 25 25 24 24 23 24 24 24 24 24 24 23 23 23 23 23 23 23 24 24 24 25 25 25 26 26 27 27 27 27 27 27 27 26 26 26
25 25 26 26 26 26 26 26 25 25 24 24 23 23 23 23 23 23 23 23 23 23 23 23 23 23 24 24 24 25 25 25 26 26 26 26 27 27 27 27 26 26 25 25
25 25 25 26 26 26 26 25 25 24 24 24 24 24 24 24 24 24 23 23 23 23 23 23 23 23 23 24 24 25 25 25 25 26 26 26 26 26 25 25 26 25 25 25
25 25 25 25 26 26 25 25 25 24 24 24 25 25 25 24 24 24 23 23 23 23 23 24 24 24 24 24 24 24 24 24 24 24 24 25 24 24 24 24 25 25 25 25
24 24 24 25 25 25 25 25 24 24 24 24 24 25 24 24 24 24 24 23 23 23 23 23 23 23 24 24 24 24 24 24 24 23 23 23 23 23 23 23 24 24 24 24
24 24 24 24 24 24 24 24 24 24 24 23 23 23 23 23 23 23 24 24 24 23 23 23 23 23 23 23 23 23 23 23 23 23 22 22 22 22 22 22 22 22 22 23
Wind_Direction
281 279 278 276 275 273 273 274 275 276 275 275 274 273 274 274 275 275 274 273 273 273 273 273 273 273 273 272 272 272 272 272 272 272 273 274 274 274 274 275 275 275 275 275
281 278 277 276 276 276 275 275 275 275 275 274 273 273 274 274 274 273 274 274 274 274 273 274 274 273 273 273 272 272 272 272 273 273 274 275 275 275 274 275 276 276 276 276
284 281 278 277 279 279 278 276 276 275 275 275 273 273 273 274 273 273 274 275 275 275 274 274 274 273 273 273 273 273 273 273 274 274 274 275 276 276 275 276 276 277 277 277
286 283 281 282 282 282 281 278 275 275 275 275 274 274 274 274 275 275 275 277 277 277 276 275 274 273 274 274 274 273 274 274 275 275 275 275 276 276 276 276 277 278 278 277
288 286 284 283 283 283 282 280 277 276 277 277 276 275 276 276 277 278 278 278 278 278 277 276 275 274 274 274 274 274 274 275 275 276 275 276 276 277 277 277 277 278 278 278
287 285 286 285 283 282 282 281 279 278 277 277 276 276 276 277 277 278 279 278 278 278 278 277 276 276 276 275 275 274 275 275 276 277 277 277 277 278 278 277 277 278 278 278
286 285 286 285 283 281 281 282 281 280 279 279 278 277 277 277 278 279 279 279 280 279 279 278 278 277 276 276 276 276 275 275 276 277 277 277 277 278 278 277 276 277 277 278
287 286 286 285 284 282 282 281 281 280 281 281 279 278 278 277 277 279 280 280 280 279 279 279 279 278 278 277 276 276 276 276 277 277 278 279 278 278 278 278 278 277 277 277
286 285 285 284 283 283 282 281 280 281 281 280 280 279 279 279 279 280 281 281 281 280 280 279 279 279 278 278 277 277 276 277 278 278 279 279 279 279 279 279 278 277 277 277
285 284 284 284 283 282 282 283 282 282 281 280 280 279 279 279 281 281 280 280 280 280 280 280 279 279 278 277 277 277 276 277 278 278 279 279 278 278 279 278 278 279 278 277
285 283 282 283 283 282 281 282 283 283 283 282 282 281 281 281 282 281 281 280 280 280 280 280 280 279 277 277 277 277 276 277 278 279 278 278 278 278 278 278 279 279 278 278
286 285 284 282 283 283 283 284 285 285 285 285 284 283 282 283 284 283 282 281 281 281 281 281 280 278 277 276 277 277 276 277 278 279 278 278 278 278 278 279 279 278 278 279
285 286 284 282 283 284 284 286 287 287 286 285 284 284 284 284 284 284 283 282 281 280 281 281 279 277 277 277 277 276 277 278 277 276 276 277 278 279 279 280 280 280 281 281
286 285 283 284 285 286 287 288 289 290 289 288 287 286 286 286 286 286 285 283 281 280 279 279 277 276 277 277 277 276 276 276 276 276 276 278 279 279 279 279 280 281 281 281
286 286 285 286 287 288 288 289 289 290 290 290 289 290 289 289 288 288 287 285 283 280 279 278 277 276 276 276 276 275 274 275 276 276 276 277 278 279 278 279 279 281 281 281
289 289 289 289 291 291 290 290 290 290 290 290 290 291 291 291 291 290 289 287 284 282 280 278 277 276 275 275 275 274 274 275 275 275 275 277 278 278 279 279 279 281 281 281
293 291 290 290 290 290 291 291 290 290 290 291 292 292 292 292 293 292 290 287 285 283 281 279 277 276 275 274 274 274 274 274 275 275 275 276 278 279 279 279 280 280 281 281
294 294 293 294 293 292 292 293 293 292 292 292 293 293 293 293 293 292 290 287 285 283 280 279 278 276 275 274 273 273 274 274 275 275 276 277 279 280 280 279 280 280 281 282
296 295 295 295 296 296 297 296 295 295 295 294 293 293 294 294 294 292 291 288 286 284 281 280 278 277 275 274 273 274 275 275 276 276 277 279 280 280 280 280 280 280 280 282
299 298 297 297 298 297 297 297 297 296 295 294 294 295 295 296 295 294 292 289 287 285 283 281 280 277 274 273 274 274 275 276 277 277 278 278 280 280 280 280 280 280 281 282
301 300 300 300 299 298 298 298 299 298 296 295 294 295 296 296 297 296 294 291 288 287 285 283 280 278 276 275 274 274 275 277 278 278 278 279 280 280 280 280 279 280 281 282
301 301 300 300 300 299 299 298 298 297 297 297 296 296 296 297 297 297 295 292 290 289 287 284 281 279 277 276 276 276 277 278 280 280 280 280 281 280 279 279 279 280 281 282
302 302 301 300 300 300 299 298 298 297 296 297 296 296 297 297 297 297 295 293 292 290 289 286 283 281 279 278 278 278 279 280 280 281 281 281 281 280 280 279 278 279 280 281
304 302 302 302 302 301 299 298 298 297 296 296 296 296 296 297 297 297 296 294 293 292 290 288 286 283 282 281 281 281 281 282 282 283 283 282 282 281 281 280 279 278 279 281
307 305 304 303 303 302 301 299 298 298 297 296 295 295 295 295 295 295 296 296 295 293 291 288 286 284 283 283 283 283 283 283 283 283 284 284 283 283 282 281 281 280 280 281
311 309 307 306 306 304 303 302 300 298 297 296 295 295 294 294 295 296 297 298 296 294 292 289 287 285 284 284 284 284 283 283 283 284 284 285 284 284 284 283 283 282 281 281
313 311 310 309 309 308 307 306 303 300 298 297 296 296 296 295 295 295 296 297 296 294 293 291 289 287 286 285 285 285 284 283 283 283 285 286 286 286 286 285 285 284 283 282
Height
5565 5563 5561 5560 5559 5558 5557 5556 5554 5554 5553 5553 5551 5550 5549 5548 5547 5545 5544 5543 5542 5541 5540 5539 5538 5536 5535 5534 5533 5531 5530 5528 5527 5525 5523 5521 5520 5518 5516 5515 5513 5511 5510 5508
5555 5553 5551 5549 5549 5547 5546 5545 5543 5542 5542 5542 5539 5538 5537 5536 5535 5534 5533 5532 5531 5530 5528 5527 5525 5524 5523 5521 5520 5518 5517 5515 5514 5512 5510 5508 5506 5504 5503 5501 5500 5498 5496 5495
5543 5542 5540 5538 5540 5538 5536 5534 5533 5531 5532 5530 5528 5527 5526 5525 5524 5523 5521 5520 5519 5518 5516 5515 5513 5512 5510 5509 5507 5506 5504 5503 5501 5499 5498 5496 5493 5492 5490 5488 5486 5485 5483 5481
5532 5532 5529 5532 5529 5526 5525 5524 5522 5520 5520 5519 5517 5516 5515 5513 5512 5511 5510 5508 5507 5506 5504 5503 5501 5500 5498 5497 5495 5494 5492 5491 5489 5487 5485 5483 5481 5479 5477 5475 5474 5472 5470 5468
5522 5519 5517 5519 5518 5516 5513 5513 5512 5510 5509 5507 5506 5504 5504 5502 5501 5500 5498 5497 5496 5494 5493 5491 5490 5488 5487 5485 5483 5482 5480 5479 5477 5475 5473 5471 5469 5467 5465 5463 5461 5459 5458 5456
5513 5510 5508 5510 5508 5505 5503 5502 5502 5499 5498 5496 5495 5494 5494 5492 5490 5489 5487 5486 5484 5483 5481 5480 5478 5477 5475 5473 5472 5470 5468 5467 5465 5463 5461 5459 5457 5455 5453 5451 5449 5447 5445 5443
5503 5500 5498 5499 5497 5495 5495 5494 5491 5488 5487 5485 5484 5483 5482 5481 5479 5478 5476 5475 5473 5471 5470 5468 5467 5465 5464 5462 5460 5458 5456 5455 5453 5451 5449 5447 5445 5443 5441 5439 5437 5435 5433 5431
5494 5492 5492 5489 5487 5486 5484 5482 5480 5478 5476 5475 5473 5472 5470 5469 5468 5466 5465 5464 5462 5460 5459 5457 5455 5454 5452 5450 5448 5446 5445 5443 5441 5439 5437 5435 5433 5431 5429 5427 5425 5423 5421 5419
5486 5485 5482 5479 5477 5476 5474 5472 5470 5468 5466 5464 5462 5461 5460 5458 5457 5456 5454 5453 5451 5449 5447 5446 5443 5442 5440 5439 5437 5435 5434 5432 5430 5428 5426 5424 5422 5420 5417 5415 5413 5411 5409 5407
5476 5475 5472 5470 5467 5466 5464 5462 5460 5458 5455 5453 5452 5450 5449 5448 5446 5445 5443 5441 5440 5438 5436 5434 5432 5430 5428 5427 5425 5424 5422 5420 5418 5417 5415 5412 5411 5409 5407 5404 5402 5400 5398 5396
5466 5465 5462 5460 5458 5455 5454 5452 5450 5448 5445 5443 5441 5440 5438 5437 5435 5434 5432 5430 5428 5426 5425 5423 5421 5419 5417 5415 5414 5412 5411 5409 5407 5406 5404 5402 5400 5398 5396 5394 5392 5390 5388 5386
5457 5455 5453 5451 5448 5446 5444 5442 5440 5438 5436 5433 5431 5429 5428 5426 5424 5422 5420 5418 5416 5415 5413 5411 5409 5407 5406 5404 5403 5401 5400 5398 5397 5395 5393 5392 5390 5388 5385 5384 5382 5380 5378 5376
5448 5446 5444 5441 5439 5437 5435 5433 5430 5428 5426 5424 5421 5419 5417 5415 5413 5411 5409 5407 5405 5403 5401 5400 5398 5396 5395 5393 5392 5391 5389 5388 5386 5385 5383 5382 5380 5378 5377 5375 5372 5370 5369 5367
5439 5437 5435 5432 5430 5428 5426 5423 5421 5419 5416 5414 5412 5409 5407 5405 5402 5400 5397 5395 5393 5391 5390 5388 5387 5385 5384 5383 5381 5380 5379 5377 5376 5375 5373 5372 5371 5369 5368 5366 5364 5361 5359 5358
5430 5428 5426 5423 5421 5419 5417 5415 5412 5410 5407 5405 5402 5400 5397 5395 5392 5390 5387 5385 5383 5381 5379 5378 5376 5375 5374 5372 5371 5370 5369 5367 5366 5365 5364 5362 5361 5360 5358 5356 5355 5353 5351 5349
5422 5419 5417 5415 5413 5410 5408 5405 5403 5401 5398 5395 5393 5390 5388 5385 5383 5380 5377 5374 5372 5371 5369 5368 5366 5365 5364 5362 5361 5360 5359 5358 5356 5355 5354 5353 5352 5350 5349 5347 5345 5344 5342 5340
5413 5411 5409 5406 5404 5402 5399 5396 5394 5391 5389 5386 5384 5381 5379 5376 5373 5371 5368 5365 5363 5361 5359 5358 5357 5355 5354 5353 5352 5351 5350 5348 5347 5346 5345 5344 5342 5341 5339 5338 5336 5334 5333 5331
5405 5402 5400 5397 5395 5393 5390 5387 5385 5382 5379 5377 5375 5372 5370 5367 5364 5362 5359 5356 5354 5352 5350 5349 5347 5346 5345 5344 5343 5342 5341 5339 5338 5337 5336 5335 5333 5332 5330 5328 5327 5325 5323 5321
5397 5394 5391 5389 5386 5384 5381 5379 5376 5373 5371 5368 5366 5363 5360 5358 5355 5352 5350 5347 5345 5343 5341 5340 5338 5337 5336 5335 5334 5333 5332 5331 5330 5328 5327 5326 5324 5322 5321 5319 5318 5316 5314 5312
5390 5387 5384 5381 5378 5375 5373 5370 5367 5365 5362 5359 5357 5355 5352 5349 5346 5344 5341 5339 5337 5335 5333 5331 5329 5328 5327 5326 5325 5324 5323 5322 5321 5320 5318 5317 5315 5313 5312 5310 5309 5307 5305 5303
5382 5379 5376 5373 5371 5368 5365 5362 5359 5356 5354 5351 5349 5346 5344 5341 5338 5336 5333 5331 5329 5326 5324 5322 5321 5319 5318 5317 5316 5315 5314 5313 5312 5310 5309 5307 5306 5304 5303 5301 5300 5298 5296 5295
5375 5372 5369 5366 5363 5360 5357 5354 5351 5348 5346 5343 5341 5338 5336 5333 5331 5328 5325 5323 5321 5319 5316 5314 5313 5311 5310 5309 5308 5307 5306 5305 5303 5301 5300 5298 5297 5295 5293 5292 5291 5289 5287 5286
5367 5364 5361 5358 5355 5352 5349 5346 5343 5340 5338 5335 5333 5330 5328 5325 5323 5320 5318 5315 5313 5310 5308 5306 5305 5303 5302 5301 5300 5298 5297 5296 5294 5293 5291 5289 5287 5286 5284 5283 5281 5280 5279 5277
5359 5356 5353 5350 5347 5344 5341 5338 5335 5332 5330 5327 5324 5322 5320 5317 5315 5312 5310 5307 5305 5303 5301 5299 5297 5295 5294 5293 5291 5290 5289 5287 5285 5284 5282 5280 5278 5277 5275 5274 5272 5271 5270 5269
5352 5348 5345 5342 5339 5336 5332 5329 5327 5324 5321 5319 5316 5314 5311 5309 5307 5304 5302 5299 5297 5294 5292 5291 5289 5287 5286 5284 5283 5282 5280 5278 5277 5275 5273 5272 5270 5268 5267 5265 5264 5263 5261 5260
5345 5341 5338 5334 5331 5328 5324 5321 5318 5316 5313 5310 5308 5305 5303 5301 5298 5296 5294 5291 5289 5286 5284 5282 5280 5279 5277 5276 5275 5273 5272 5270 5268 5267 5265 5264 5262 5260 5259 5257 5256 5254 5253 5252
5338 5334 5331 5327 5324 5320 5317 5314 5310 5308 5305 5302 5300 5297 5295 5292 5290 5288 5285 5283 5280 5278 5276 5274 5272 5270 5269 5268 5266 5265 5263 5262 5261 5259 5258 5256 5255 5253 5251 5250 5248 5247 5245 5244